Weather History for Chanute, KS

Change the Weather History Date:

Thursday, January 24, 2013

  Actual Average Record
Temperature  
Mean Temperature 26 °F 33 °F  
Max Temperature 32 °F 43 °F 75 °F (1950)
Min Temperature 20 °F 23 °F -6 °F (1963)
Degree Days  
Heating Degree Days 39 32  
Month to date heating degree days 739 788  
Since 1 July heating degree days 2142 2581  
Cooling Degree Days 0 0  
Month to date cooling degree days 0 0  
Year to date cooling degree days 0 0  
Moisture  
Dew Point 13 °F    
Average Humidity 57    
Maximum Humidity 67    
Minimum Humidity 46    
Precipitation  
Precipitation 0.00 in 0.04 in 0.85 in (1921)
Month to date precipitation 0.40 0.94  
Year to date precipitation 0.40 0.94  
Sea Level Pressure  
Sea Level Pressure 30.31 in    
Wind  
Wind Speed 10 mph (ENE)    
Max Wind Speed 17 mph    
Max Gust Speed 25 mph    
Visibility 10 miles    
Events      
T = Trace of Precipitation, MM = Missing Value Source: NWS Daily Summary

Daily Weather History Graph

Daily Weather History Graph

Search for Another Location

Airport:

Trip Planner

Search our weather history database for the weather conditions in past years. The results will help you decide how hot, cold, wet, or windy it might be!

Date:

Astronomy

Jan. 24, 2013 Rise Set
Actual Time 7:31 AM CST 5:37 PM CST
Civil Twilight 7:03 AM CST 6:05 PM CST
Nautical Twilight 6:31 AM CST 6:37 PM CST
Astronomical Twilight 6:00 AM CST 7:08 PM CST
Moon 3:40 PM CST (1/24) 5:29 AM CST (1/24)
Length of Visible Light 11h 01m
Length of Day
10h 05m
Waxing Gibbous, 94% of the Moon is Illuminated
Jan 24
Waxing Gibbous
Jan 26
Full
Feb 3
Last Quarter
Feb 10
New
Feb 17
First Quarter

Hourly Weather History & Observations

Time (CST) Temp. Windchill Dew Point Humidity Pressure Visibility Wind Dir Wind Speed Gust Speed Precip Events Conditions
12:52 AM 30.9 °F 22.2 °F 19.9 °F 64% 30.37 in 10.0 mi NNE 10.4 mph 19.6 mph N/A   Clear
1:52 AM 28.9 °F 19.2 °F 17.1 °F 61% 30.36 in 10.0 mi NE 11.5 mph 20.7 mph N/A   Clear
2:52 AM 28.0 °F 17.5 °F 15.1 °F 58% 30.38 in 10.0 mi NE 12.7 mph - N/A   Clear
3:52 AM 26.1 °F 15.0 °F 15.1 °F 63% 30.38 in 10.0 mi NE 12.7 mph - N/A   Clear
4:52 AM 25.0 °F 13.1 °F 12.0 °F 58% 30.39 in 10.0 mi NE 13.8 mph - N/A   Clear
5:52 AM 23.0 °F 9.6 °F 12.0 °F 63% 30.40 in 10.0 mi NE 16.1 mph - N/A   Clear
6:52 AM 21.0 °F 9.9 °F 10.9 °F 65% 30.40 in 10.0 mi ENE 10.4 mph 19.6 mph N/A   Clear
7:52 AM 19.9 °F 6.2 °F 10.9 °F 68% 30.41 in 10.0 mi ENE 15.0 mph 20.7 mph N/A   Clear
8:52 AM 19.9 °F 6.7 °F 10.0 °F 65% 30.41 in 10.0 mi ENE 13.8 mph - N/A   Mostly Cloudy
9:52 AM 21.0 °F 8.1 °F 9.0 °F 60% 30.41 in 10.0 mi ENE 13.8 mph 23.0 mph N/A   Mostly Cloudy
10:52 AM 23.0 °F 10.6 °F 8.1 °F 53% 30.43 in 10.0 mi ENE 13.8 mph 19.6 mph N/A   Overcast
11:52 AM 24.1 °F 13.1 °F 8.1 °F 51% 30.40 in 10.0 mi ENE 11.5 mph - N/A   Overcast
12:52 PM 27.0 °F 16.7 °F 8.1 °F 45% 30.34 in 10.0 mi ENE 11.5 mph - N/A   Overcast
1:19 PM 26.6 °F 16.2 °F 8.6 °F 47% 30.30 in 10.0 mi East 11.5 mph 18.4 mph N/A   Overcast
1:52 PM 27.0 °F 17.3 °F 10.0 °F 49% 30.30 in 10.0 mi East 10.4 mph - N/A   Overcast
2:52 PM 28.9 °F 19.2 °F 10.9 °F 47% 30.27 in 10.0 mi East 11.5 mph - N/A   Overcast
3:52 PM 30.0 °F 22.4 °F 12.0 °F 47% 30.25 in 10.0 mi East 8.1 mph - N/A   Overcast
4:52 PM 30.0 °F 22.4 °F 14.0 °F 51% 30.24 in 10.0 mi ENE 8.1 mph - N/A   Overcast
5:52 PM 30.0 °F 21.7 °F 15.1 °F 54% 30.19 in 10.0 mi East 9.2 mph - N/A   Overcast
6:52 PM 30.9 °F 25.2 °F 14.0 °F 50% 30.21 in 10.0 mi East 5.8 mph - N/A   Overcast
7:52 PM 30.9 °F 25.2 °F 15.1 °F 52% 30.19 in 10.0 mi ENE 5.8 mph - N/A   Overcast
8:52 PM 30.9 °F 26.2 °F 15.1 °F 52% 30.20 in 10.0 mi NNE 4.6 mph - N/A   Overcast
9:52 PM 32.0 °F 26.4 °F 16.0 °F 52% 30.19 in 10.0 mi NNE 5.8 mph - N/A   Overcast
10:52 PM 30.9 °F 27.5 °F 16.0 °F 54% 30.19 in 10.0 mi NE 3.5 mph - N/A   Overcast
11:52 PM 30.9 °F 27.5 °F 15.1 °F 52% 30.18 in 10.0 mi NNE 3.5 mph - N/A   Overcast